Regional Weather Roundup
Issued by NWS

Home | Current Version | Previous Version | Graphics & Text | Print | Product List | Glossary On
Versions: 1 2 3 4 5 6 7 8 9 10 11 12 13 14 15 16 17 18 19 20 21 22 23 24 25 26 27 28 29 30 31 32 33 34 35 36 37 38 39 40 41 42 43 44 45 46 47 48 49 50
384
ASUS43 KLSX 202057
RWRMO

WEATHER SUMMARY FOR MISSOURI
NATIONAL WEATHER SERVICE SPRINGFIELD MO
400 PM CDT FRI OCT 20 2017

NOTE: "FAIR" INDICATES FEW OR NO CLOUDS BELOW 12,000 FEET WITH NO
       SIGNIFICANT WEATHER AND/OR OBSTRUCTIONS TO VISIBILITY.
       CURRENT SKY AND/OR WEATHER CONDITIONS ARE NOT AVAILABLE FOR
       CHILLICOTHE AND FARMINGTON.

MOZ001>031-035>038-043-044-053-054-202200-
...NORTHERN AND WESTERN MISSOURI...

CITY           SKY/WX    TMP DP  RH WIND       PRES   REMARKS
KANSAS CTY INT PTSUNNY   72  59  63 S23       29.90F
LEE`S SUMMIT   MOSUNNY   72  59  63 SE21G29   29.94F
ST JOSEPH      LGT RAIN  76  59  55 S22G32    29.85F
CHILLICOTHE      N/A     71  56  58 SE12G21   29.95F

$$
MOZ066>068-077>081-088>096-101>105-202200-
...SOUTHWEST MISSOURI...

CITY           SKY/WX    TMP DP  RH WIND       PRES   REMARKS
SPRINGFIELD    CLOUDY    73  55  53 S9        30.03F
JOPLIN         SUNNY     75  56  51 S15G26    29.98F
BRANSON        CLOUDY    70  57  64 S16G24    30.07F

$$
MOZ032>034-039>042-045>050-055>058-069>072-202200-
...CENTRAL MISSOURI...

CITY           SKY/WX    TMP DP  RH WIND       PRES   REMARKS
COLUMBIA       NOT AVBL
JEFFERSON CITY PTSUNNY   73  48  41 S12       30.02F
ROLLA          SUNNY     72  50  45 SE13      30.07S
SEDALIA        CLOUDY    71  56  58 S14       30.00F
WARRENSBURG    PTSUNNY   72  55  56 S13G21    29.96F

$$
MOZ051-052-059>065-202200-
...EAST CENTRAL MISSOURI...

CITY           SKY/WX    TMP DP  RH WIND       PRES   REMARKS
ST LOUIS INTL  CLOUDY    74  50  42 SE14      30.08F

$$
MOZ072>076-082>087-097>100-106>115-202200-
...SOUTH CENTRAL AND SOUTHEAST MISSOURI...

CITY           SKY/WX    TMP DP  RH WIND       PRES   REMARKS
CAPE GIRARDEAU MOSUNNY   76  49  38 S6        30.12F
POPLAR BLUFF   CLOUDY    77  53  43 S7        30.12S
WEST PLAINS    PTSUNNY   72  53  51 SE10      30.09F

$$



USA.gov is the U.S. government's official web portal to all federal, state and local government web resources and services.